| time (UTC) | temp C | wind direction | speed KPH | gust KPH | rain 1hr cm | rain 24hr cm | rain mn cm | humidity % | barometer mb |
| 20260506214515 | 11 | 275 | 11.3 | 14.5 | 0.00 | 1.07 | 0.41 | 45 | 1013.4 |
| 20260506213012 | 11 | 265 | 12.9 | 16.1 | 0.00 | 1.09 | 0.41 | 45 | 1013.2 |
| 20260506211511 | 11 | 271 | 14.5 | 19.3 | 0.00 | 1.12 | 0.41 | 46 | 1013.2 |
| 20260506210009 | 11 | 257 | 14.5 | 19.3 | 0.00 | 1.19 | 0.41 | 43 | 1013.2 |
| 20260506204505 | 12 | 280 | 16.1 | 25.7 | 0.00 | 1.27 | 0.41 | 41 | 1013.1 |
| 20260506203020 | 12 | 285 | 14.5 | 22.5 | 0.00 | 1.32 | 0.41 | 43 | 1013.1 |
| 20260506201519 | 12 | 269 | 17.7 | 24.1 | 0.00 | 1.37 | 0.41 | 44 | 1013.0 |
| 20260506200013 | 12 | 300 | 11.3 | 22.5 | 0.00 | 1.42 | 0.41 | 41 | 1013.0 |
| 20260506194516 | 12 | 270 | 14.5 | 19.3 | 0.00 | 1.47 | 0.41 | 43 | 1012.9 |
| 20260506193010 | 12 | 300 | 11.3 | 17.7 | 0.00 | 1.47 | 0.41 | 44 | 1013.0 |
| 20260506191505 | 12 | 277 | 12.9 | 20.9 | 0.00 | 1.52 | 0.41 | 41 | 1013.0 |
| 20260506190006 | 12 | 292 | 12.9 | 22.5 | 0.00 | 1.52 | 0.41 | 41 | 1013.1 |
| 20260506184522 | 12 | 276 | 12.9 | 22.5 | 0.00 | 1.55 | 0.41 | 43 | 1013.0 |
| 20260506183018 | 12 | 254 | 12.9 | 20.9 | 0.00 | 1.60 | 0.41 | 42 | 1012.8 |
| 20260506181518 | 12 | 275 | 14.5 | 20.9 | 0.00 | 1.63 | 0.41 | 42 | 1012.5 |
| 20260506180014 | 13 | 330 | 11.3 | 20.9 | 0.00 | 1.70 | 0.41 | 43 | 1012.7 |
| 20260506174510 | 12 | 271 | 14.5 | 22.5 | 0.00 | 1.73 | 0.41 | 44 | 1012.7 |
| 20260506173006 | 12 | 267 | 8.0 | 19.3 | 0.00 | 1.78 | 0.41 | 47 | 1012.9 |
| 20260506171524 | 12 | 286 | 16.1 | 22.5 | 0.00 | 1.80 | 0.41 | 46 | 1013.0 |
| 20260506170023 | 12 | 317 | 14.5 | 27.4 | 0.00 | 1.83 | 0.41 | 44 | 1013.0 |
| 20260506164520 | 12 | 287 | 11.3 | 22.5 | 0.00 | 1.85 | 0.41 | 47 | 1013.2 |
| 20260506163031 | 12 | 272 | 9.7 | 17.7 | 0.00 | 1.85 | 0.41 | 46 | 1013.2 |
| 20260506161511 | 11 | 62 | 8.0 | 20.9 | 0.00 | 1.85 | 0.41 | 52 | 1013.2 |
| 20260506160017 | 11 | 327 | 11.3 | 24.1 | 0.00 | 1.85 | 0.41 | 48 | 1013.1 |
| 20260506154525 | 11 | 321 | 11.3 | 20.9 | 0.00 | 1.85 | 0.41 | 53 | 1013.1 |
| 20260506153025 | 11 | 321 | 9.7 | 20.9 | 0.00 | 1.85 | 0.41 | 46 | 1012.9 |
| 20260506151521 | 11 | 334 | 14.5 | 22.5 | 0.00 | 1.85 | 0.41 | 52 | 1012.7 |
| 20260506150027 | 11 | 306 | 8.0 | 17.7 | 0.00 | 1.85 | 0.41 | 54 | 1012.8 |
| 20260506144523 | 11 | 328 | 8.0 | 20.9 | 0.00 | 1.85 | 0.41 | 56 | 1012.4 |
| 20260506143012 | 10 | 326 | 9.7 | 20.9 | 0.00 | 1.85 | 0.41 | 54 | 1012.2 |
| 20260506141526 | 10 | 15 | 9.7 | 17.7 | 0.00 | 1.85 | 0.41 | 57 | 1012.0 |
| 20260506140026 | 10 | 338 | 11.3 | 22.5 | 0.00 | 1.85 | 0.41 | 58 | 1012.0 |
| 20260506134523 | 10 | 344 | 4.8 | 20.9 | 0.00 | 1.85 | 0.41 | 61 | 1011.8 |
| 20260506133021 | 9 | 329 | 9.7 | 19.3 | 0.00 | 1.85 | 0.41 | 67 | 1012.1 |
| 20260506131520 | 8 | 338 | 8.0 | 17.7 | 0.00 | 1.85 | 0.41 | 71 | 1011.8 |
| 20260506130016 | 8 | 305 | 4.8 | 14.5 | 0.00 | 1.85 | 0.41 | 77 | 1011.6 |
| 20260506124527 | 7 | 338 | 8.0 | 16.1 | 0.00 | 1.85 | 0.41 | 79 | 1011.3 |
| 20260506123011 | 7 | 330 | 4.8 | 12.9 | 0.00 | 1.85 | 0.41 | 82 | 1011.2 |
| 20260506121509 | 7 | 311 | 9.7 | 17.7 | 0.00 | 1.85 | 0.41 | 84 | 1011.2 |
| 20260506120006 | 7 | 285 | 11.3 | 14.5 | 0.00 | 1.85 | 0.41 | 87 | 1010.9 |
| 20260506114504 | 6 | 278 | 4.8 | 14.5 | 0.00 | 1.85 | 0.41 | 88 | 1010.6 |
| 20260506113022 | 6 | 273 | 8.0 | 12.9 | 0.00 | 1.85 | 0.41 | 87 | 1010.7 |
| 20260506111519 | 6 | 279 | 6.4 | 12.9 | 0.00 | 1.85 | 0.41 | 87 | 1010.4 |
| 20260506110015 | 6 | 279 | 8.0 | 14.5 | 0.00 | 1.85 | 0.41 | 87 | 1010.4 |
| 20260506104510 | 6 | 271 | 11.3 | 14.5 | 0.00 | 1.85 | 0.41 | 88 | 1010.3 |
| 20260506103010 | 6 | 260 | 6.4 | 9.7 | 0.00 | 1.85 | 0.41 | 88 | 1009.8 |
| 20260506101508 | 6 | 269 | 4.8 | 9.7 | 0.00 | 1.85 | 0.41 | 87 | 1009.6 |
| 20260506100023 | 6 | 286 | 6.4 | 11.3 | 0.00 | 1.85 | 0.41 | 87 | 1009.6 |
| 20260506094521 | 6 | 287 | 4.8 | 9.7 | 0.00 | 1.85 | 0.41 | 88 | 1009.5 |
| 20260506093019 | 6 | 266 | 4.8 | 6.4 | 0.00 | 1.85 | 0.41 | 88 | 1009.6 |
| 20260506091516 | 6 | 244 | 4.8 | 4.8 | 0.00 | 1.85 | 0.41 | 88 | 1009.4 |
| 20260506090013 | 6 | 264 | 3.2 | 4.8 | 0.00 | 1.85 | 0.41 | 87 | 1009.3 |
| 20260506084508 | 6 | 269 | 8.0 | 9.7 | 0.03 | 1.85 | 0.41 | 87 | 1010.0 |
| 20260506083025 | 6 | 228 | 0.0 | 1.6 | 0.03 | 1.85 | 0.41 | 85 | 1009.2 |
| 20260506081525 | 6 | 228 | 1.6 | 6.4 | 0.05 | 1.85 | 0.41 | 86 | 1009.5 |
| 20260506073016 | 6 | 304 | 1.6 | 3.2 | 0.18 | 1.85 | 0.38 | 87 | 1009.2 |
| 20260506071513 | 6 | 304 | 0.0 | 3.2 | 0.18 | 1.83 | 0.36 | 87 | 1009.2 |
| 20260506061530 | 6 | 314 | 0.0 | 0.0 | 0.10 | 1.65 | 0.18 | 86 | 1009.0 |
| 20260506044530 | 7 | 314 | 0.0 | 0.0 | 0.08 | 1.52 | 0.05 | 88 | 1009.7 |
| 20260506043023 | 7 | 314 | 0.0 | 0.0 | 0.05 | 1.47 | 0.03 | 88 | 1009.4 |
| 20260506041522 | 7 | 313 | 0.0 | 0.0 | 0.05 | 1.47 | 0.03 | 86 | 1009.4 |
| 20260506040049 | 7 | 314 | 0.0 | 6.4 | 0.03 | 1.47 | 0.00 | 86 | 1009.6 |
| 20260506034527 | 7 | 327 | 3.2 | 8.0 | 0.03 | 1.45 | 1.45 | 87 | 1009.6 |
| 20260506033006 | 8 | 292 | 3.2 | 6.4 | 0.05 | 1.45 | 1.45 | 89 | 1009.6 |
| 20260506031519 | 8 | 221 | 0.0 | 3.2 | 0.05 | 1.45 | 1.45 | 89 | 1009.5 |
| 20260506030008 | 8 | 221 | 1.6 | 4.8 | 0.08 | 1.45 | 1.45 | 89 | 1009.6 |
| 20260506024516 | 8 | 221 | 1.6 | 4.8 | 0.08 | 1.42 | 1.42 | 91 | 1009.8 |
| 20260506023011 | 8 | 221 | 0.0 | 3.2 | 0.10 | 1.40 | 1.40 | 91 | 1009.4 |
| 20260506021510 | 8 | 221 | 0.0 | 3.2 | 0.15 | 1.40 | 1.40 | 91 | 1009.3 |
| 20260506020010 | 8 | 221 | 1.6 | 4.8 | 0.18 | 1.37 | 1.37 | 91 | 1009.3 |
| 20260506014514 | 8 | 221 | 3.2 | 6.4 | 0.18 | 1.32 | 1.32 | 91 | 1009.3 |
| 20260506013009 | 8 | 221 | 6.4 | 8.0 | 0.15 | 1.30 | 1.30 | 91 | 1009.5 |
| 20260506011512 | 8 | 221 | 4.8 | 6.4 | 0.13 | 1.24 | 1.24 | 90 | 1009.1 |
| 20260506010014 | 8 | 240 | 4.8 | 6.4 | 0.10 | 1.19 | 1.19 | 90 | 1009.0 |
| 20260506004522 | 8 | 240 | 3.2 | 6.4 | 0.10 | 1.17 | 1.17 | 89 | 1009.0 |
| 20260506003015 | 8 | 230 | 4.8 | 6.4 | 0.15 | 1.14 | 1.14 | 89 | 1009.0 |
| 20260506001516 | 8 | 230 | 4.8 | 4.8 | 0.23 | 1.12 | 1.12 | 89 | 1008.8 |
| 20260506000013 | 8 | 230 | 3.2 | 4.8 | 0.25 | 1.09 | 1.09 | 88 | 1008.8 |
| 20260505234515 | 8 | 230 | 3.2 | 6.4 | 0.25 | 1.07 | 1.07 | 88 | 1008.8 |
| 20260505233017 | 8 | 230 | 4.8 | 8.0 | 0.18 | 0.99 | 0.99 | 87 | 1008.8 |
| 20260505231526 | 8 | 257 | 3.2 | 6.4 | 0.08 | 0.89 | 0.89 | 86 | 1009.0 |
| 20260505230026 | 9 | 352 | 3.2 | 4.8 | 0.03 | 0.84 | 0.84 | 86 | 1008.9 |
| 20260505224518 | 9 | 352 | 0.0 | 0.0 | 0.00 | 0.81 | 0.81 | 87 | 1008.9 |
| 20260505223017 | 9 | 352 | 0.0 | 1.6 | 0.03 | 0.81 | 0.81 | 86 | 1008.8 |
| 20260505221517 | 9 | 352 | 0.0 | 4.8 | 0.05 | 0.81 | 0.81 | 86 | 1008.6 |
| 20260505220021 | 9 | 344 | 0.0 | 6.4 | 0.13 | 0.81 | 0.81 | 86 | 1008.6 |